Prague, Czech Republic

1:33 PM CET on December 03, 2016 (GMT +0100)
Ruzyne

Weather History for LKPR - September, 2012

Change the Weather History Date:

Tuesday, September 4, 2012

  Actual Average Record
Temperature  
Mean Temperature 62 °F -  
Max Temperature 72 °F 67 °F 80 °F (2011)
Min Temperature 52 °F 49 °F 42 °F (2007)
Degree Days  
Heating Degree Days 3    
Growing Degree Days 12 (Base 50)    
Moisture  
Dew Point 54 °F    
Average Humidity 76    
Maximum Humidity 100    
Minimum Humidity 47    
Precipitation  
Precipitation 0.00 in - - ()
Sea Level Pressure  
Sea Level Pressure 30.17 in    
Wind  
Wind Speed 3 mph ()    
Max Wind Speed 7 mph    
Max Gust Speed -    
Visibility 6.5 miles    
Events      
Averages and records for this station are not official NWS values.
T = Trace of Precipitation, MM = Missing Value Source: Averaged Metar Reports

Daily Weather History Graph

Daily Weather History Graph

Search for Another Location

Airport or City:

Trip Planner

Search our weather history database for the weather conditions in past years. The results will help you decide how hot, cold, wet, or windy it might be!

Date:

Astronomy

Sep. 04, 2012 Rise Set
Actual Time 6:22 AM CEST 7:40 PM CEST
Civil Twilight 5:49 AM CEST 8:13 PM CEST
Nautical Twilight 5:08 AM CEST 8:53 PM CEST
Astronomical Twilight 4:24 AM CEST 9:37 PM CEST
Moon 8:50 PM CEST (9/4) 10:43 AM CEST (9/4)
Length of Visible Light 14h 24m
Length of Day
13h 17m
Waning Gibbous, 85% of the Moon is Illuminated
Sep 4
Waning Gibbous
Sep 8
Last Quarter
Sep 16
New
Sep 22
First Quarter
Sep 30
Full

Hourly Weather History & Observations

Time (CEST) Temp. Dew Point Humidity Pressure Visibility Wind Dir Wind Speed Gust Speed Precip Events Conditions
12:00 AM 57.2 °F 55.4 °F 94% 30.21 in - NNW 2.3 mph - N/A   Clear
12:30 AM 57.2 °F 55.4 °F 94% 30.21 in - Variable 1.2 mph - N/A   Clear
1:00 AM 57.2 °F 53.6 °F 88% 30.21 in - Variable 1.2 mph - N/A   Clear
1:30 AM 55.4 °F 53.6 °F 94% 30.21 in - Variable 1.2 mph - N/A   Clear
2:00 AM 56 °F 54 °F 93% 30.21 in 6 mi South 2.2 mph - -  
2:00 AM 55.4 °F 53.6 °F 94% 30.21 in - Calm Calm - N/A   Clear
2:30 AM 55.4 °F 53.6 °F 94% 30.21 in 5.6 mi Variable 2.3 mph - N/A   Unknown
3:00 AM 53.6 °F 51.8 °F 94% 30.18 in 5.6 mi WSW 3.5 mph - N/A   Unknown
3:30 AM 53.6 °F 53.6 °F 100% 30.18 in 5.6 mi West 3.5 mph - N/A   Unknown
4:00 AM 53.6 °F 53.6 °F 100% 30.18 in 5.0 mi West 3.5 mph - N/A   Unknown
4:30 AM 53.6 °F 53.6 °F 100% 30.18 in 5.0 mi West 3.5 mph - N/A   Unknown
5:00 AM 53.6 °F 51.8 °F 94% 30.18 in 5.6 mi Variable 2.3 mph - N/A   Unknown
5:30 AM 53.6 °F 53.6 °F 100% 30.18 in - Variable 2.3 mph - N/A   Clear
6:00 AM 55.4 °F 53.6 °F 94% 30.18 in 5.0 mi Calm Calm - N/A   Partly Cloudy
6:30 AM 53.6 °F 51.8 °F 94% 30.18 in 4.3 mi West 3.5 mph - N/A   Unknown
7:00 AM 53.6 °F 51.8 °F 94% 30.18 in 5.0 mi Variable 2.3 mph - N/A   Partly Cloudy
7:30 AM 55.4 °F 53.6 °F 94% 30.18 in 5.0 mi West 2.3 mph - N/A   Unknown
8:00 AM 57 °F 54 °F 87% 30.19 in 5 mi NW 2.2 mph - -   Mist
8:00 AM 57.2 °F 53.6 °F 88% 30.18 in 5.0 mi Variable 2.3 mph - N/A   Unknown
8:30 AM 59.0 °F 55.4 °F 88% 30.18 in 5.6 mi NW 3.5 mph - N/A   Unknown
9:00 AM 59.0 °F 55.4 °F 88% 30.18 in - NNW 5.8 mph - N/A   Clear
9:30 AM 60.8 °F 55.4 °F 82% 30.18 in - NNW 5.8 mph - N/A   Clear
10:00 AM 62.6 °F 55.4 °F 77% 30.21 in - NNW 4.6 mph - N/A   Clear
10:30 AM 64.4 °F 57.2 °F 77% 30.21 in 6.2 mi NNW 3.5 mph - N/A   Mostly Cloudy
11:00 AM 64.4 °F 57.2 °F 77% 30.21 in 6.2 mi Variable 2.3 mph - N/A   Scattered Clouds
11:30 AM 66.2 °F 55.4 °F 68% 30.21 in 6.2 mi Variable 3.5 mph - N/A   Partly Cloudy
12:00 PM 66.2 °F 55.4 °F 68% 30.18 in 6.2 mi East 4.6 mph - N/A   Scattered Clouds
12:30 PM 66.2 °F 55.4 °F 68% 30.18 in 6.2 mi East 3.5 mph - N/A   Scattered Clouds
1:00 PM 66.2 °F 53.6 °F 64% 30.18 in 6.2 mi East 5.8 mph - N/A   Scattered Clouds
1:13 PM 69.8 °F 55.4 °F 60% 30.18 in 6.2 mi East 4.6 mph - N/A   Scattered Clouds
1:30 PM 69.8 °F 53.6 °F 56% 30.18 in 6.2 mi East 4.6 mph - N/A   Scattered Clouds
2:00 PM 69 °F 53 °F 47% 30.16 in 19 mi NE 4.5 mph - -   Partly Cloudy
2:00 PM 69.8 °F 53.6 °F 56% 30.18 in 6.2 mi NNE 5.8 mph - N/A   Scattered Clouds
2:30 PM 69.8 °F 53.6 °F 56% 30.18 in 6.2 mi NE 6.9 mph - N/A   Scattered Clouds
3:00 PM 71.6 °F 53.6 °F 53% 30.15 in 6.2 mi NE 6.9 mph - N/A   Partly Cloudy
3:30 PM 71.6 °F 53.6 °F 53% 30.15 in 6.2 mi ENE 4.6 mph - N/A   Partly Cloudy
4:00 PM 71.6 °F 53.6 °F 53% 30.15 in 6.2 mi ENE 5.8 mph - N/A   Partly Cloudy
4:30 PM 71.6 °F 53.6 °F 53% 30.15 in 6.2 mi East 4.6 mph - N/A   Partly Cloudy
5:00 PM 71.6 °F 53.6 °F 53% 30.12 in 6.2 mi NE 4.6 mph - N/A   Partly Cloudy
5:30 PM 71.6 °F 53.6 °F 53% 30.12 in 6.2 mi East 4.6 mph - N/A   Partly Cloudy
6:00 PM 69.8 °F 53.6 °F 56% 30.12 in 6.2 mi NE 4.6 mph - N/A   Partly Cloudy
6:30 PM 69.8 °F 55.4 °F 60% 30.12 in 6.2 mi ENE 3.5 mph - N/A   Partly Cloudy
7:00 PM 68.0 °F 53.6 °F 60% 30.12 in - NNE 3.5 mph - N/A   Clear
7:30 PM 66.2 °F 53.6 °F 64% 30.12 in - NE 3.5 mph - N/A   Clear
8:00 PM 65 °F 52 °F 54% 30.11 in 16 mi East 2.2 mph - -  
8:00 PM 64.4 °F 53.6 °F 68% 30.12 in - Calm Calm - N/A   Clear
8:30 PM 64.4 °F 53.6 °F 68% 30.12 in - Calm Calm - N/A   Clear
9:00 PM 62.6 °F 55.4 °F 77% 30.12 in - SSW 3.5 mph - N/A   Clear
9:30 PM 62.6 °F 53.6 °F 72% 30.15 in - Variable 1.2 mph - N/A   Clear
10:00 PM 62.6 °F 53.6 °F 72% 30.15 in - Calm Calm - N/A   Clear
10:30 PM 62.6 °F 53.6 °F 72% 30.15 in - Calm Calm - N/A   Clear
11:00 PM 60.8 °F 53.6 °F 77% 30.12 in - Calm Calm - N/A   Clear
11:30 PM 59.0 °F 53.6 °F 82% 30.12 in - Variable 2.3 mph - N/A   Clear